EW7084 Weather Reports


Display with metric or nautical units.
time (UTC)temp
F
wind
direction
speed
MPH
gust
MPH
rain 1hr
in
rain 24hr
in
rain mn
in
humidity
%
barometer
mb
20260508140014 44 167 1.0 14.0 0.00 0.00 0.00 76 1014.1
20260508134514 45 157 4.0 8.0 0.00 0.00 0.00 78 1013.8
20260508133019 45 155 4.0 7.0 0.00 0.00 0.00 80 1013.2
20260508131512 44 159 4.0 8.0 0.00 0.00 0.00 81 1013.1
20260508130012 43 167 3.0 6.0 0.00 0.00 0.00 82 1013.3
20260508124511 43 150 3.0 6.0 0.00 0.00 0.00 84 1013.2
20260508123011 42 150 3.0 6.0 0.00 0.00 0.00 86 1013.4
20260508121510 41 171 2.0 6.0 0.00 0.00 0.00 88 1013.4
20260508120009 40 146 3.0 5.0 0.00 0.00 0.00 88 1013.6
20260508114508 40 146 0.0 1.0 0.00 0.00 0.00 88 1013.4
20260508113008 40 146 0.0 2.0 0.00 0.00 0.00 88 1013.6
20260508111511 39 146 0.0 3.0 0.00 0.00 0.00 88 1013.6
20260508110007 38 146 1.0 2.0 0.00 0.00 0.00 88 1013.5
20260508104506 37 146 0.0 0.0 0.00 0.00 0.00 87 1013.5
20260508103014 37 146 0.0 2.0 0.00 0.00 0.00 87 1013.6
20260508101512 37 146 0.0 1.0 0.00 0.00 0.00 86 1013.5
20260508100006 36 146 0.0 2.0 0.00 0.00 0.00 86 1013.5
20260508094502 36 146 0.0 2.0 0.00 0.00 0.00 85 1013.6
20260508093100 36 146 0.0 1.0 0.00 0.00 0.00 85 1013.6
20260508091557 36 146 0.0 0.0 0.00 0.00 0.00 84 1013.3
20260508090110 37 146 0.0 0.0 0.00 0.00 0.00 84 1013.3
20260508083111 38 146 0.0 2.0 0.00 0.00 0.00 83 1013.0
20260508081551 39 146 0.0 3.0 0.00 0.00 0.00 83 1012.8
20260508080050 40 146 0.0 0.0 0.00 0.00 0.00 83 1012.9
20260508074549 41 146 0.0 2.0 0.00 0.00 0.00 83 1012.5
20260508073043 42 146 0.0 1.0 0.00 0.00 0.00 83 1012.8
20260508071541 42 146 0.0 3.0 0.00 0.00 0.00 83 1012.7
20260508070039 42 146 0.0 3.0 0.00 0.00 0.00 81 1012.8
20260508064548 42 146 0.0 1.0 0.00 0.00 0.00 78 1012.7
20260508063036 42 146 0.0 3.0 0.00 0.00 0.00 77 1012.6
20260508061536 42 146 0.0 2.0 0.00 0.00 0.00 75 1012.6
20260508060032 42 146 0.0 0.0 0.00 0.00 0.00 75 1012.5
20260508054533 43 146 0.0 1.0 0.00 0.00 0.00 74 1012.4
20260508053031 43 146 0.0 2.0 0.00 0.00 0.00 74 1012.5
20260508051525 44 146 0.0 2.0 0.00 0.00 0.00 73 1012.7
20260508050026 45 146 0.0 0.0 0.00 0.00 0.00 73 1012.8
20260508044521 46 146 0.0 0.0 0.00 0.00 0.00 73 1012.7
20260508043020 46 146 0.0 5.0 0.00 0.00 0.00 73 1012.9
20260508041517 46 146 3.0 8.0 0.00 0.00 0.00 72 1013.0
20260508040021 46 209 0.0 6.0 0.00 0.00 0.00 73 1012.9
20260508034514 46 340 0.0 2.0 0.00 0.00 0.00 75 1012.7
20260508033016 46 340 0.0 1.0 0.00 0.00 0.00 74 1012.4
20260508031520 47 340 0.0 1.0 0.00 0.00 0.00 74 1012.3
20260508030015 47 340 0.0 0.0 0.00 0.00 0.00 73 1012.2
20260508024512 47 340 0.0 1.0 0.00 0.00 0.00 72 1011.8
20260508023023 47 340 0.0 1.0 0.00 0.00 0.00 71 1011.7
20260508021515 47 340 0.0 1.0 0.00 0.00 0.00 70 1011.7
20260508020011 48 340 0.0 0.0 0.00 0.00 0.00 68 1011.7
20260508014525 48 340 0.0 0.0 0.00 0.00 0.00 66 1011.5
20260508011509 50 340 0.0 0.0 0.00 0.00 0.00 64 1011.1
20260508010021 51 340 0.0 1.0 0.00 0.00 0.00 63 1011.1
20260508004515 52 340 0.0 0.0 0.00 0.00 0.00 60 1011.0
20260508003029 53 340 0.0 2.0 0.00 0.00 0.00 56 1010.9
20260508001508 54 340 0.0 3.0 0.00 0.00 0.00 54 1010.9
20260508000006 55 340 1.0 3.0 0.00 0.00 0.00 52 1010.6
20260507234505 56 340 1.0 2.0 0.00 0.00 0.00 48 1010.6
20260507233105 56 340 0.0 10.0 0.00 0.00 0.00 47 1010.4
20260507231504 57 24 5.0 10.0 0.00 0.00 0.00 46 1010.3
20260507230008 57 342 4.0 10.0 0.00 0.00 0.00 45 1010.3
20260507224506 57 23 3.0 9.0 0.00 0.00 0.00 46 1010.3
20260507223003 57 30 3.0 13.0 0.00 0.00 0.00 45 1010.2
20260507221502 59 31 2.0 9.0 0.00 0.00 0.00 42 1010.2
20260507214605 58 29 5.0 11.0 0.00 0.00 0.00 45 1010.3
20260507214503 58 9 3.0 11.0 0.00 0.00 0.00 44 1010.3
20260507213058 58 347 3.0 9.0 0.00 0.00 0.00 44 1010.4
20260507211623 56 116 2.0 9.0 0.00 0.00 0.00 46 1010.5
20260507210058 57 286 2.0 11.0 0.00 0.00 0.00 44 1010.4
20260507204604 58 300 5.0 11.0 0.00 0.00 0.00 43 1010.4
20260507203056 59 360 4.0 12.0 0.00 0.00 0.00 41 1010.5
20260507201610 57 281 6.0 12.0 0.00 0.00 0.00 45 1010.5
20260507194555 57 348 3.0 9.0 0.00 0.02 0.00 44 1010.8
20260507193049 56 14 5.0 13.0 0.00 0.02 0.00 44 1011.0
20260507191551 56 228 3.0 13.0 0.00 0.02 0.00 45 1011.0
20260507190047 58 188 2.0 8.0 0.00 0.02 0.00 43 1011.1
20260507184547 59 280 2.0 11.0 0.00 0.02 0.00 43 1011.2
20260507183042 57 164 3.0 10.0 0.00 0.02 0.00 44 1011.2
20260507181639 56 274 6.0 11.0 0.00 0.02 0.00 43 1011.5
20260507180043 55 302 4.0 13.0 0.00 0.02 0.00 48 1011.6
20260507174536 55 5 1.0 10.0 0.00 0.03 0.00 48 1012.0
20260507173036 55 243 1.0 9.0 0.00 0.03 0.00 46 1011.9
20260507171532 54 292 3.0 9.0 0.00 0.03 0.00 48 1012.1
20260507170031 55 196 3.0 7.0 0.00 0.03 0.00 47 1012.1
20260507164530 55 16 5.0 11.0 0.00 0.04 0.00 45 1012.3
20260507163027 53 296 2.0 7.0 0.00 0.04 0.00 49 1012.5
20260507161526 53 252 1.0 8.0 0.00 0.04 0.00 48 1012.7
20260507160033 53 163 5.0 10.0 0.00 0.04 0.00 46 1012.8
20260507154523 53 301 4.0 14.0 0.00 0.06 0.00 49 1013.0
20260507153030 52 256 7.0 13.0 0.00 0.06 0.00 50 1013.1
20260507151521 52 294 4.0 9.0 0.00 0.06 0.00 49 1013.3
20260507150019 51 288 3.0 9.0 0.00 0.06 0.00 52 1013.4
20260507144518 50 197 3.0 9.0 0.00 0.08 0.00 55 1013.6
20260507143014 50 219 4.0 8.0 0.00 0.08 0.00 55 1013.6
20260507141512 49 272 0.0 7.0 0.00 0.08 0.00 57 1013.7